TimeCET,TemperatureF,Dew PointF,Humidity,Sea Level PressureIn,VisibilityMPH,Wind Direction,Wind SpeedMPH,Gust SpeedMPH,PrecipitationIn,Events,Conditions,WindDirDegrees,DateUTC
12:45 AM,39.2,37.4,93,30.24,3.7,NNW,2.3,-,N/A,,Mostly Cloudy,330,2013-11-17 23:45:00
1:00 AM,39,38,93,30.26,4,NNW,2.2,,,,Partly Cloudy,330,2013-11-18 00:00:00
1:45 AM,39.2,37.4,93,30.21,3.7,Calm,Calm,-,N/A,,Mostly Cloudy,0,2013-11-18 00:45:00
2:38 AM,39.2,37.4,93,30.24,2.5,East,1.2,-,N/A,,Mostly Cloudy,90,2013-11-18 01:38:00
2:45 AM,39.2,37.4,93,30.21,2.5,East,1.2,-,N/A,,Mostly Cloudy,90,2013-11-18 01:45:00
3:45 AM,39.2,37.4,93,30.21,2.5,Calm,Calm,-,N/A,,Mostly Cloudy,0,2013-11-18 02:45:00
4:45 AM,37.4,37.4,100,30.18,2.2,ESE,2.3,-,N/A,,Mostly Cloudy,120,2013-11-18 03:45:00
5:15 AM,37.4,35.6,93,30.18,2.2,East,2.3,-,N/A,,Mostly Cloudy,100,2013-11-18 04:15:00
5:45 AM,37.4,35.6,93,30.18,1.9,East,3.5,-,N/A,,Mostly Cloudy,100,2013-11-18 04:45:00
6:00 AM,-9999,-9999,N/A,-9999,1.9,East,3.5,-,N/A,Fog,Patches of Fog,100,2013-11-18 05:00:00
6:15 AM,37.4,37.4,100,30.18,1.9,East,8.1,-,N/A,,Mostly Cloudy,90,2013-11-18 05:15:00
6:45 AM,37.4,37.4,100,30.18,1.2,ESE,5.8,-,N/A,,Mostly Cloudy,110,2013-11-18 05:45:00
7:00 AM,38,37,93,30.21,1,ESE,4.5,,,,Mist,110,2013-11-18 06:00:00
7:15 AM,37.4,37.4,100,30.18,1.0,East,5.8,-,N/A,,Mostly Cloudy,100,2013-11-18 06:15:00
7:45 AM,39.2,39.2,100,30.18,1.1,East,5.8,-,N/A,,Mostly Cloudy,90,2013-11-18 06:45:00
8:15 AM,41.0,39.2,93,30.18,1.2,East,4.6,-,N/A,,Overcast,100,2013-11-18 07:15:00
8:45 AM,41.0,39.2,93,30.18,1.2,East,5.8,-,N/A,,Overcast,100,2013-11-18 07:45:00
9:00 AM,-9999,-9999,N/A,-9999,2.5,ESE,5.8,-,N/A,,Overcast,120,2013-11-18 08:00:00
9:15 AM,41.0,41.0,100,30.18,1.6,East,5.8,-,N/A,,Overcast,100,2013-11-18 08:15:00
9:45 AM,42.8,41.0,93,30.18,1.2,East,4.6,-,N/A,,Overcast,100,2013-11-18 08:45:00
10:15 AM,42.8,41.0,93,30.18,1.1,ESE,3.5,-,N/A,,Overcast,120,2013-11-18 09:15:00
10:45 AM,42.8,41.0,93,30.15,1.6,SE,4.6,-,N/A,,Overcast,130,2013-11-18 09:45:00
11:15 AM,44.6,41.0,87,30.15,1.6,ESE,5.8,-,N/A,,Overcast,110,2013-11-18 10:15:00
11:45 AM,44.6,41.0,87,30.12,1.7,ESE,5.8,-,N/A,,Overcast,110,2013-11-18 10:45:00
12:00 PM,-9999,-9999,N/A,-9999,2.5,ESE,5.8,-,N/A,,Overcast,120,2013-11-18 11:00:00
12:15 PM,44.6,41.0,87,30.12,1.7,ESE,8.1,-,N/A,,Overcast,120,2013-11-18 11:15:00
12:21 PM,44.6,41.0,87,30.15,-9999.0,SE,8.1,-,N/A,,Overcast,130,2013-11-18 11:21:00
12:45 PM,44.6,41.0,87,30.12,2.2,ESE,9.2,-,N/A,,Overcast,120,2013-11-18 11:45:00
1:00 PM,45,42,83,30.13,2,ESE,8.9,,,,Mist,120,2013-11-18 12:00:00
1:15 PM,44.6,41.0,87,30.09,2.2,SE,6.9,-,N/A,,Overcast,130,2013-11-18 12:15:00
1:45 PM,44.6,41.0,87,30.09,2.5,ESE,6.9,-,N/A,,Overcast,110,2013-11-18 12:45:00
1:55 PM,44.6,41.0,87,30.12,2.2,ESE,8.1,-,N/A,,Overcast,110,2013-11-18 12:55:00
2:15 PM,44.6,41.0,87,30.09,2.2,ESE,8.1,-,N/A,,Overcast,110,2013-11-18 13:15:00
2:45 PM,44.6,41.0,87,30.09,2.8,ESE,8.1,-,N/A,,Overcast,110,2013-11-18 13:45:00
3:00 PM,-9999,-9999,N/A,-9999,2.5,ESE,5.8,-,N/A,,Scattered Clouds,120,2013-11-18 14:00:00
3:15 PM,44.6,41.0,87,30.09,2.8,ESE,8.1,-,N/A,,Mostly Cloudy,120,2013-11-18 14:15:00
3:32 PM,44.6,41.0,87,30.09,3.1,ESE,8.1,-,N/A,,Mostly Cloudy,120,2013-11-18 14:32:00
3:45 PM,44.6,41.0,87,30.09,3.1,ESE,6.9,-,N/A,,Mostly Cloudy,120,2013-11-18 14:45:00
4:15 PM,44.6,41.0,87,30.06,3.1,ESE,6.9,-,N/A,,Mostly Cloudy,110,2013-11-18 15:15:00
4:32 PM,44.6,41.0,87,30.09,2.8,ESE,5.8,-,N/A,,Mostly Cloudy,110,2013-11-18 15:32:00
4:45 PM,42.8,39.2,87,30.06,-9999.0,ESE,5.8,-,N/A,,Mostly Cloudy,110,2013-11-18 15:45:00
5:04 PM,41.0,39.2,93,30.09,-9999.0,East,4.6,-,N/A,,Scattered Clouds,100,2013-11-18 16:04:00
5:15 PM,42.8,39.2,87,30.06,-9999.0,East,4.6,-,N/A,,Scattered Clouds,90,2013-11-18 16:15:00
5:45 PM,41.0,39.2,93,30.06,2.2,East,3.5,-,N/A,,Partly Cloudy,90,2013-11-18 16:45:00
6:15 PM,41.0,39.2,93,30.06,2.2,East,3.5,-,N/A,,Partly Cloudy,80,2013-11-18 17:15:00
6:45 PM,41.0,39.2,93,30.06,2.2,East,4.6,-,N/A,,Scattered Clouds,80,2013-11-18 17:45:00
7:00 PM,40,39,94,30.09,2,East,4.5,,,,Mist,80,2013-11-18 18:00:00
7:15 PM,39.2,37.4,93,30.06,2.2,ENE,4.6,-,N/A,,Scattered Clouds,70,2013-11-18 18:15:00
7:41 PM,41.0,39.2,93,30.09,1.6,East,8.1,-,N/A,,Scattered Clouds,80,2013-11-18 18:41:00
7:45 PM,41.0,39.2,93,30.06,1.6,East,8.1,-,N/A,,Scattered Clouds,80,2013-11-18 18:45:00
8:15 PM,41.0,39.2,93,30.06,1.6,ENE,4.6,-,N/A,,Scattered Clouds,60,2013-11-18 19:15:00
8:45 PM,39.2,39.2,100,30.06,1.2,East,5.8,-,N/A,,Mostly Cloudy,80,2013-11-18 19:45:00
9:04 PM,41.0,39.2,93,30.09,0.2,ENE,6.9,-,N/A,Fog,Fog,70,2013-11-18 20:04:00
9:45 PM,39.2,39.2,100,30.04,0.1,East,8.1,-,N/A,Fog,Fog,80,2013-11-18 20:45:00
10:01 PM,39.2,39.2,100,30.06,0.7,ENE,5.8,-,N/A,,Mostly Cloudy,70,2013-11-18 21:01:00
10:45 PM,39.2,39.2,100,30.04,0.7,East,4.6,-,N/A,,Mostly Cloudy,90,2013-11-18 21:45:00
11:45 PM,37.4,35.6,93,30.04,0.7,East,6.9,-,N/A,,Mostly Cloudy,80,2013-11-18 22:45:00